[Iaude] MPEC J287: 2024 JG15 [a=2.10,e=0.53,i=12.2,H=23.7]
    mpec at cfa.harvard.edu 
    mpec at cfa.harvard.edu
       
    Sun May 12 20:09:21 EDT 2024
    
    
  
M.P.E.C. 2024-J287                                 Issued 2024 May 13, 00:07 UT
     The Minor Planet Electronic Circulars contain information on unusual
         minor planets, routine data on comets and natural satellites,
         and occasional editorial announcements.  They are published
    on behalf of Division F of the International Astronomical Union by the
          Minor Planet Center, Smithsonian Astrophysical Observatory,
                          Cambridge, MA 02138, U.S.A.
			  
             Prepared using the Tamkin Foundation Computer Network
                              MPC at CFA.HARVARD.EDU
            URL https://www.minorplanetcenter.net/    ISSN 1523-6714
                                   2024 JG15                                    
Observations:
     K24J15G*1C2024 05 11.27557214 41 08.488+47 48 43.42         20.43GVEJ287G96
     K24J15G 1C2024 05 11.28122914 41 09.719+47 49 01.31         20.16GVEJ287G96
     K24J15G 1C2024 05 11.28662114 41 10.921+47 49 17.83         20.09GVEJ287G96
     K24J15G KC2024 05 11.31199014 41 16.588+47 50 34.69         20.16GVEJ287I52
     K24J15G KC2024 05 11.31791014 41 17.909+47 50 52.12         20.09GVEJ287I52
     K24J15G KC2024 05 11.32280714 41 19.007+47 51 06.80         20.14GVEJ287I52
     K24J15G KC2024 05 11.32874414 41 20.396+47 51 24.30         20.29GVEJ287I52
     K24J15G KC2024 05 11.33753814 41 22.434+47 51 50.18         19.89GVEJ287I52
     K24J15G KC2024 05 11.34321014 41 23.726+47 52 06.60         20.09GVEJ287I52
     K24J15G KC2024 05 11.34859214 41 24.936+47 52 22.19         20.04GVEJ287I52
     K24J15G KC2024 05 11.35169514 41 25.638+47 52 31.37         20.29GVEJ287I52
     K24J15G KC2024 05 11.42748414 41 43.991+47 56 04.56         20.02GVEJ287I52
     K24J15G KC2024 05 11.43074614 41 44.862+47 56 13.81         20.07GVEJ287I52
     K24J15G KC2024 05 11.43371314 41 45.618+47 56 21.62         20.21GVEJ287I52
     K24J15G KC2024 05 11.43667814 41 46.356+47 56 30.01         20.21GVEJ287I52
     K24J15G 1C2024 05 11.85684 14 44 08.45 +48 18 44.4          20.3 VXEJ287033
     K24J15G 1C2024 05 11.85744 14 44 08.63 +48 18 46.4          20.1 VXEJ287033
     K24J15G 1C2024 05 11.85806 14 44 08.78 +48 18 48.6          20.5 VXEJ287033
     K24J15G 1C2024 05 11.85893 14 44 09.04 +48 18 51.6          20.3 VXEJ287033
     K24J15G 1C2024 05 11.85959 14 44 09.23 +48 18 53.8          20.3 VXEJ287033
     K24J15G 1C2024 05 11.86035 14 44 09.44 +48 18 56.5          20.2 VXEJ287033
     K24J15G KC2024 05 11.87063314 44 12.42 +48 19 45.2          19.9 GVEJ287L01
     K24J15G KC2024 05 11.87315314 44 13.09 +48 19 54.1          20.1 GVEJ287L01
     K24J15G KC2024 05 11.87567314 44 13.76 +48 20 02.6          20.0 GVEJ287L01
     K24J15G KC2024 05 11.89677514 44 19.29 +48 21 03.6          20.0 GVEJ287K62
     K24J15G KC2024 05 11.90033814 44 20.34 +48 21 16.6          19.9 GVEJ287K62
     K24J15G KC2024 05 11.90393514 44 21.21 +48 21 29.3                VEJ287K62
     K24J15G KC2024 05 11.91181914 44 23.43 +48 21 55.2          19.9 GVEJ287K62
     K24J15G KC2024 05 11.92345 14 44 27.18 +48 22 48.6          19.9 GVEJ287104
     K24J15G KC2024 05 11.93336 14 44 29.89 +48 23 21.7          19.6 GVEJ287104
     K24J15G KC2024 05 11.98710014 44 44.84 +48 26 17.2          19.8 GVEJ287203
     K24J15G KC2024 05 12.01216814 44 51.83 +48 27 37.8                VEJ287203
     K24J15G 1C2024 05 12.05742 14 45 05.00 +48 29 49.2          20.2 VXEJ287033
     K24J15G 1C2024 05 12.05797 14 45 05.18 +48 29 50.9          20.5 VXEJ287033
     K24J15G 1C2024 05 12.05851 14 45 05.33 +48 29 52.7          20.3 VXEJ287033
     K24J15G KC2024 05 12.12080514 45 37.69 +48 33 51.3          20.0 GVEJ287H21
     K24J15G KC2024 05 12.12639614 45 39.30 +48 34 12.1          20.1 GVEJ287H21
     K24J15G KC2024 05 12.13198714 45 40.91 +48 34 32.4          20.0 GVEJ287H21
     K24J15G KC2024 05 12.13757914 45 42.55 +48 34 52.9          20.2 GVEJ287H21
     K24J15G KB2024 05 12.22108 14 46 07.788+48 39 51.55         19.9 GVEJ287734
     K24J15G KB2024 05 12.22832 14 46 09.811+48 40 17.11         19.7 GVEJ287734
     K24J15G KB2024 05 12.23522 14 46 11.791+48 40 40.94         19.9 GVEJ287734
     K24J15G mC2024 05 12.32958114 46 41.408+48 46 23.41         20.14GVEJ287I52
     K24J15G mC2024 05 12.34044914 46 44.587+48 46 59.16         19.92GVEJ287I52
     K24J15G mC2024 05 12.34234614 46 45.116+48 47 05.93         19.54GVEJ287I52
     K24J15G mC2024 05 12.35348214 46 48.407+48 47 42.94         20.14GVEJ287I52
     K24J15G 1C2024 05 12.85986 14 50 09.98 +49 17 54.6          20.3 VXEJ287033
     K24J15G 1C2024 05 12.86035 14 50 10.15 +49 17 56.7          20.5 VXEJ287033
     K24J15G 1C2024 05 12.86084 14 50 10.31 +49 17 58.4          20.7 VXEJ287033
     K24J15G KC2024 05 12.90941 14 50 26.43 +49 21 16.6          19.5 GXEJ287G02
     K24J15G KC2024 05 12.91444 14 50 28.17 +49 21 35.6          19.6 GXEJ287G02
Observer details:
033 Karl Schwarzschild Observatory, Tautenburg.  Observers S. Melnikov, C.
    Hogner, F. Ludwig, M. Hartmann, B. Stecklum, C. Heogner.  Measurer B.
    Stecklum.  1.34-m f/3 Schmidt + CCD.
104 San Marcello Pistoiese.  Observers P. Bacci, M. Maestripieri, M. D.
    Grazia.  Measurers P. Bacci, L. Tesi, G. Fagioli.  0.60-m F4 Reflector +
    CCD.
203 GiaGa Observatory.  Observer G. Galli.  0.36-m f/5.76 Schmidt-Cassegrain +
    CCD.
734 Farpoint Observatory, Eskridge.  Observers D. Cromer, G. Hug, D. Goodin,
    R. Valentine, P. Lessig.  Measurer G. Hug.  0.69-m f/3.54 reflector + CMO.
G02 KYSUCE Observatory, Kysucke Nove Mesto.  Observer M. Urbanik.  0.40-m
    f/6.8 Corrected Dall-Kirkham + CCD.
G96 Mt. Lemmon Survey.  Observer K. W. Wierzchos.  Measurers T. Beuden, V. F.
    Carvajal, D. Fay, J. B. Fazekas, D. C. Fuls, A. R. Gibbs, A. D. Grauer, H.
    Groeller, J. K. Hogan, R. A. Kowalski, S. M. Larson, G. J. Leonard, D.
    Rankin, R. L. Seaman, F. C. Shelly, K. W. Wierzchos.  1.5-m reflector +
    10K CCD.
H21 Astronomical Research Observatory, Westfield.  Observer R. Holmes.
    Measurers T. Linder, R. Holmes, L. Horn.  0.76-m f/3.0 astrograph + CCD.
I52 Steward Observatory, Mt. Lemmon Station.  Observer T. Beuden.  Measurers
    T. Beuden, V. F. Carvajal, D. Fay, J. B. Fazekas, D. C. Fuls, A. R. Gibbs,
    A. D. Grauer, H. Groeller, J. K. Hogan, R. A. Kowalski, S. M. Larson, G.
    J. Leonard, D. Rankin, R. L. Seaman, F. C. Shelly, K. W. Wierzchos.  1.0-m
    prime focus + CCD.
K62 Teplice Observatory.  Observer Z. Moravec.  0.60-m f/3.3 reflector + CMOS.
L01 Visnjan Observatory, Tican.  Observers K. Korlevic, G. Kervina.  Measurer
    K. Korlevic.  1.0-m f/2.9 reflector + CCD.
Orbital elements:
2024 JG15                                                Earth MOID = 0.0103 AU
Epoch 2024 Mar. 31.0 TT = JDT 2460400.5                 Veres                   
M 338.25606              (2000.0)            P               Q                  
n   0.32438140     Peri.  194.19972     -0.18245796     +0.96427518             
a   2.0978065      Node    65.57999     -0.88025069     -0.07318512             
e   0.5274372      Incl.   12.17609     -0.43802719     -0.25459246             
P   3.04           H   23.76          G   0.15           U   8                  
Residuals in seconds of arc
240511 G96  0.3+  0.4-    240511 033  0.3-  0.2+    240512 033  0.0   0.3+
240511 G96  0.0   0.1+    240511 033  0.1-  0.1+    240512 H21  0.1+  0.0
240511 G96  0.0   0.1+    240511 033  0.0   0.0     240512 H21  0.0   0.1+
240511 I52  0.2-  0.2+    240511 033  0.1-  0.0     240512 H21  0.1-  0.1-
240511 I52  0.3-  0.0     240511 L01  0.2-  0.2+    240512 H21  0.2+  0.2-
240511 I52  0.4-  0.1+    240511 L01  0.3-  0.3+    240512 734  0.4+  0.2-
240511 I52  0.0   0.1+    240511 L01  0.5-  0.1+    240512 734  0.0   0.2-
240511 I52  0.3+  0.1+    240511 K62  0.0   0.1-    240512 734  0.2+  0.6-
240511 I52  0.2+  0.1-    240511 K62  0.6+  0.7+    240512 I52  0.2-  0.5+
240511 I52  0.1-  0.1-    240511 K62  0.6-  1.2+    240512 I52  0.1+  0.3-
240511 I52  0.3-  0.1+    240511 K62  0.2-  0.3+    240512 I52  0.1-  0.1+
240511 I52  0.3-  0.0     240511 104  0.6-  0.4+    240512 I52  0.2+  0.1+
240511 I52  0.1+  0.3+    240511 104  0.2-  0.0     240512 033  0.0   0.1-
240511 I52  0.0   0.0     240511 203  0.2-  0.4+    240512 033  0.0   0.0
240511 I52  0.2-  0.3+    240512 203  0.0   0.3-    240512 033  0.2-  0.2-
240511 033  0.1-  0.2+    240512 033  0.1-  0.2+    240512 G02  0.1+  0.1+
240511 033  0.0   0.1+    240512 033  0.1+  0.2+    240512 G02  0.1-  0.3-
Ephemeris:
2024 JG15                a,e,i = 2.10, 0.53, 12                  q = 0.9913
Date    TT    R. A. (2000) Decl.     Delta      r    Elong.  Phase     V
2024 04 13    14 07 17.2 +35 54 38   0.2483  1.1887   134.0    37.3    22.6
...
2024 04 28    14 14 44.1 +41 01 43   0.1539  1.1019   124.8    48.6    21.7
...
2024 05 06    14 24 50.0 +44 22 35   0.1051  1.0634   118.8    56.3    21.0
...
2024 05 12    14 44 50.9 +48 26 53   0.06897 1.0392   113.1    63.4    20.3
2024 05 13    14 51 02.5 +49 27 02   0.06301 1.0356   111.9    64.9    20.1
2024 05 14    14 58 53.2 +50 36 48   0.05709 1.0321   110.6    66.5    20.0
...
2024 05 20    18 05 01.9 +61 16 07   0.02424 1.0139    94.2    84.4    18.7
...
2024 05 28    00 45 27.7 -15 04 35   0.03681 0.9978    64.0   114.1    21.0
...
2024 06 12    01 35 59.8 -31 22 54   0.1256  0.9942    76.7    96.2    22.7
M. P. C. Staff               (C) Copyright 2024 MPC           M.P.E.C. 2024-J287
    
    
More information about the Iaude
mailing list